GW3224 Weather Reports


Display with metric or nautical units.
time (UTC)temp
F
wind
direction
speed
MPH
gust
MPH
rain 1hr
in
rain 24hr
in
rain mn
in
humidity
%
barometer
mb
20260508145729 61 268 4.0 13.0 0.00 0.00 0.00 61 1014.5
20260508144729 60 217 2.0 9.0 0.00 0.00 0.00 61 1014.5
20260508143730 60 190 2.0 6.0 0.00 0.00 0.00 62 1014.5
20260508142729 60 219 4.0 11.0 0.00 0.00 0.00 61 1014.5
20260508141731 60 241 4.0 11.0 0.00 0.00 0.00 59 1014.4
20260508140731 61 224 3.0 11.0 0.00 0.00 0.00 58 1014.4
20260508135730 62 241 4.0 9.0 0.00 0.00 0.00 59 1014.5
20260508133730 61 247 4.0 9.0 0.00 0.00 0.00 60 1014.5
20260508132730 60 226 0.0 0.0 0.00 0.00 0.00 61 1014.5
20260508131730 59 227 0.0 0.0 0.00 0.00 0.00 64 1014.5
20260508130730 58 228 0.0 0.0 0.00 0.00 0.00 66 1014.7
20260508125729 56 164 0.0 0.0 0.00 0.00 0.00 68 1014.6
20260508122729 51 165 0.0 0.0 0.00 0.00 0.00 72 1014.7
20260508121728 50 159 0.0 0.0 0.00 0.00 0.00 80 1014.6
20260508120728 47 134 0.0 0.0 0.00 0.00 0.00 84 1014.6
20260508115728 45 133 0.0 2.0 0.00 0.00 0.00 86 1014.6
20260508114728 44 109 0.0 0.0 0.00 0.00 0.00 88 1014.6
20260508113729 43 109 0.0 0.0 0.00 0.00 0.00 89 1014.5
20260508112728 42 109 0.0 0.0 0.00 0.00 0.00 89 1014.2
20260508111727 41 109 0.0 0.0 0.00 0.00 0.00 90 1014.4
20260508110727 41 109 0.0 0.0 0.00 0.00 0.00 90 1014.1
20260508105726 40 109 0.0 0.0 0.00 0.00 0.00 91 1014.1
20260508104726 39 109 0.0 0.0 0.00 0.00 0.00 91 1014.1
20260508103727 39 109 0.0 0.0 0.00 0.00 0.00 90 1014.0
20260508102726 38 109 0.0 0.0 0.00 0.00 0.00 89 1013.9
20260508101726 38 109 0.0 0.0 0.00 0.00 0.00 89 1013.8
20260508100726 38 109 0.0 0.0 0.00 0.00 0.00 89 1013.6
20260508095726 39 109 0.0 0.0 0.00 0.00 0.00 88 1013.6
20260508094726 39 109 0.0 0.0 0.00 0.00 0.00 88 1013.7
20260508093725 40 109 0.0 0.0 0.00 0.00 0.00 87 1013.8
20260508091725 40 109 0.0 0.0 0.00 0.00 0.00 87 1013.8
20260508090724 41 109 0.0 0.0 0.00 0.00 0.00 86 1013.9
20260508084723 41 109 0.0 0.0 0.00 0.00 0.00 85 1013.8
20260508083723 42 109 0.0 0.0 0.00 0.00 0.00 83 1013.8
20260508082723 43 109 0.0 0.0 0.00 0.00 0.00 82 1013.8
20260508081723 44 109 0.0 0.0 0.00 0.00 0.00 81 1013.8
20260508080723 44 109 0.0 2.0 0.00 0.00 0.00 81 1013.8
20260508075720 44 109 0.0 2.0 0.00 0.00 0.00 79 1013.9
20260508074722 45 109 0.0 0.0 0.00 0.00 0.00 80 1013.9
20260508073722 45 158 0.0 0.0 0.00 0.00 0.00 79 1013.8
20260508072722 46 158 0.0 0.0 0.00 0.00 0.00 80 1013.8
20260508071722 47 168 0.0 9.0 0.00 0.00 0.00 79 1013.9
20260508070720 46 354 0.0 2.0 0.00 0.00 0.00 79 1014.4
20260508065721 46 217 0.0 0.0 0.00 0.00 0.00 80 1014.0
20260508064722 46 217 0.0 0.0 0.00 0.00 0.00 81 1013.9
20260508063718 46 217 0.0 0.0 0.00 0.00 0.00 81 1014.0
20260508061720 46 217 0.0 0.0 0.00 0.00 0.00 81 1013.9
20260508060721 45 217 0.0 0.0 0.00 0.00 0.00 82 1013.9
20260508055720 45 217 0.0 2.0 0.00 0.00 0.00 82 1014.0
20260508053719 43 251 0.0 0.0 0.00 0.00 0.00 87 1014.0
20260508052720 42 251 0.0 0.0 0.00 0.00 0.00 86 1014.2
20260508051717 42 251 0.0 0.0 0.00 0.00 0.00 86 1014.1
20260508050717 43 251 0.0 0.0 0.00 0.00 0.00 87 1014.1
20260508045718 43 251 0.0 0.0 0.00 0.00 0.00 88 1014.2
20260508044719 43 251 0.0 0.0 0.00 0.00 0.00 89 1014.2
20260508043719 42 251 0.0 0.0 0.00 0.00 0.00 88 1014.4
20260508041719 42 251 0.0 0.0 0.00 0.00 0.00 88 1014.2
20260508040718 42 251 0.0 0.0 0.00 0.00 0.00 88 1014.2
20260508033717 41 251 0.0 0.0 0.00 0.00 0.00 87 1014.1
20260508032716 42 251 0.0 0.0 0.00 0.00 0.00 86 1014.1
20260508031717 42 251 0.0 0.0 0.00 0.00 0.00 86 1014.0
20260508030717 42 251 0.0 0.0 0.00 0.00 0.00 86 1014.1
20260508025716 42 251 0.0 0.0 0.00 0.00 0.00 86 1014.4
20260508024716 42 251 0.0 0.0 0.00 0.00 0.00 85 1014.1
20260508023716 43 251 0.0 0.0 0.00 0.00 0.00 84 1014.2
20260508022716 43 251 0.0 0.0 0.00 0.00 0.00 84 1014.2
20260508021716 44 251 0.0 0.0 0.00 0.00 0.00 83 1014.1
20260508015715 44 251 0.0 0.0 0.00 0.00 0.00 79 1014.2
20260508014715 44 251 0.0 0.0 0.00 0.00 0.00 76 1014.2
20260508013714 45 251 0.0 0.0 0.00 0.00 0.00 75 1014.2
20260508012715 45 251 0.0 0.0 0.00 0.00 0.00 73 1014.1
20260508011715 46 251 0.0 0.0 0.00 0.00 0.00 74 1014.0
20260508010714 47 251 0.0 0.0 0.00 0.00 0.00 73 1014.1
20260508005715 48 251 0.0 0.0 0.00 0.00 0.00 69 1013.9
20260508003713 51 251 0.0 0.0 0.00 0.00 0.00 66 1013.7
20260508002713 52 251 0.0 0.0 0.00 0.00 0.00 63 1013.8
20260508001713 54 251 0.0 4.0 0.00 0.00 0.00 59 1013.7
20260508000713 55 262 0.0 0.0 0.00 0.00 0.00 55 1013.6
20260507235712 56 271 0.0 2.0 0.00 0.00 0.00 55 1013.5
20260507234713 57 250 0.0 6.0 0.00 0.00 0.00 49 1013.4
20260507233712 58 197 2.0 15.0 0.00 0.00 0.00 48 1013.5
20260507232711 59 240 2.0 13.0 0.00 0.00 0.00 46 1013.3
20260507231711 60 278 2.0 13.0 0.00 0.00 0.00 46 1013.3
20260507230712 60 221 4.0 11.0 0.00 0.00 0.00 46 1013.3
20260507225712 60 295 4.0 13.0 0.00 0.00 0.00 45 1013.4
20260507223706 61 300 4.0 15.0 0.00 0.00 0.00 42 1013.6
20260507222704 61 251 5.0 13.0 0.00 0.00 0.00 43 1013.7
20260507221701 61 259 8.0 15.0 0.00 0.00 0.00 44 1013.6
20260507220702 61 333 4.0 13.0 0.00 0.00 0.00 45 1013.6
20260507215711 60 234 3.0 15.0 0.00 0.00 0.00 46 1013.6
20260507214704 60 240 4.0 15.0 0.00 0.00 0.00 44 1013.5
20260507211704 59 293 4.0 13.0 0.00 0.00 0.00 48 1013.3
20260507210702 60 13 3.0 17.0 0.00 0.00 0.00 47 1013.3
20260507205703 61 303 6.0 23.0 0.00 0.00 0.00 48 1013.3
20260507204703 61 264 7.0 19.0 0.00 0.00 0.00 46 1013.1
20260507203704 61 261 7.0 17.0 0.00 0.00 0.00 52 1013.2
20260507202702 61 234 7.0 19.0 0.00 0.00 0.00 48 1013.0
20260507201703 60 245 9.0 17.0 0.00 0.00 0.00 51 1013.0
20260507200702 60 244 6.0 15.0 0.00 0.00 0.00 49 1013.3
20260507195703 60 290 6.0 17.0 0.00 0.00 0.00 48 1013.3
20260507194703 60 199 6.0 19.0 0.00 0.00 0.00 54 1013.3
20260507193702 60 52 8.0 19.0 0.00 0.00 0.00 50 1013.5
20260507192702 60 341 9.0 26.0 0.00 0.00 0.00 51 1013.4
20260507191703 60 228 10.0 17.0 0.00 0.00 0.00 48 1013.4
20260507190702 60 327 6.0 17.0 0.00 0.00 0.00 55 1013.7
20260507185702 60 6 7.0 21.0 0.00 0.00 0.00 51 1013.5
20260507184701 60 276 5.0 15.0 0.00 0.00 0.00 53 1013.5
20260507183704 60 302 6.0 19.0 0.00 0.00 0.00 52 1013.6
20260507182704 59 321 7.0 17.0 0.00 0.00 0.00 55 1013.6
20260507181704 60 271 4.0 21.0 0.00 0.00 0.00 50 1013.7
20260507180702 60 285 3.0 15.0 0.00 0.00 0.00 57 1013.7
20260507175702 59 299 6.0 15.0 0.00 0.00 0.00 53 1013.7
20260507174702 58 230 4.0 15.0 0.00 0.00 0.00 51 1013.7
20260507173704 58 7 9.0 23.0 0.00 0.00 0.00 49 1013.9
20260507172702 58 305 6.0 28.0 0.00 0.00 0.00 55 1014.1
20260507171703 58 266 7.0 19.0 0.00 0.00 0.00 48 1014.2
20260507170703 58 305 4.0 15.0 0.00 0.00 0.00 49 1014.4
20260507165702 58 13 7.0 19.0 0.00 0.00 0.00 48 1014.4
20260507164702 59 244 4.0 9.0 0.00 0.00 0.00 55 1014.5
20260507163702 59 241 4.0 19.0 0.00 0.00 0.00 50 1014.4
20260507162703 58 245 6.0 15.0 0.00 0.00 0.00 55 1014.5
20260507155703 57 351 7.0 19.0 0.00 0.00 0.00 51 1014.5
20260507154702 57 212 6.0 13.0 0.00 0.00 0.00 58 1014.5
20260507153701 56 233 4.0 17.0 0.00 0.00 0.00 52 1014.4
20260507152701 57 210 5.0 13.0 0.00 0.00 0.00 55 1014.2
20260507151701 56 228 4.0 11.0 0.00 0.00 0.00 55 1014.1
20260507150701 56 289 5.0 11.0 0.00 0.00 0.00 54 1014.1